EHI
5 5 4 4 5 5 5 4 3 1 0 0 0 0 0 0 0 0 0 0 0 1 2 1 0 0 0 0 0 0 0 0 0 0 0 0 0 0 0 0 0 0 0
4 4 3 3 3 3 3 3 2 1 0 0 0 0 0 0 0 0 0 0 0 1 1 1 0 0 0 0 0 0 0 0 0 0 0 0 0 0 0 0 0 0 0
3 3 3 2 1 1 1 1 1 0 0 0 0 0 0 0 0 0 0 0 0 0 0 0 0 0 0 0 0 0 0 0 0 0 0 0 0 0 0 0 0 0 0
3 3 3 2 0 0 0 0 0 0 0 0 0 0 0 0 0 0 0 0 0 0 0 0 0 0 0 0 0 0 0 0 0 0 0 0 0 0 0 0 0 0 0
3 3 3 2 1 1 0 0 0 0 0 0 0 0 0 0 0 0 0 0 0 0 1 0 0 0 0 0 0 0 0 0 0 0 0 0 0 0 0 0 0 0 0
3 3 2 2 2 1 0 0 0 0 0 0 0 0 0 0 0 0 0 0 0 0 0 0 0 0 0 0 0 0 0 0 0 0 0 0 0 0 0 0 0 0 0
2 1 1 1 1 1 0 0 0 0 0 0 0 0 0 0 0 0 0 0 0 0 0 0 0 0 0 0 0 0 0 0 0 0 0 0 0 0 0 0 0 0 0
1 0 0 0 0 0 0 0 0 0 0 0 0 0 0 0 0 0 0 0 0 0 0 0 0 0 0 0 0 0 0 0 0 0 0 0 0 0 0 0 0 0 0
0 0 0 0 0 0 0 0 0 0 0 0 0 0 0 0 0 0 0 0 0 0 0 0 0 0 0 0 0 0 0 0 0 0 0 0 0 0 0 0 0 0 0
0 0 0 0 0 0 0 0 0 0 0 0 0 0 0 0 0 0 0 0 0 0 0 0 0 0 0 0 0 0 0 0 0 0 0 0 0 0 0 0 0 0 0
0 0 0 0 0 0 0 0 0 0 0 0 0 0 0 0 0 0 0 0 0 0 0 0 0 0 0 0 0 0 0 0 0 0 0 0 0 0 0 0 0 0 0
0 0 0 0 0 0 0 0 0 0 0 0 0 0 0 0 0 0 0 0 0 0 0 0 0 0 0 0 0 0 0 0 0 0 0 0 0 0 0 0 0 0 0
0 0 0 0 0 0 0 0 0 0 0 0 0 0 0 0 0 0 0 0 0 0 0 0 0 0 0 0 0 0 0 0 0 0 0 0 0 0 0 0 0 0 0
0 0 0 0 0 0 0 0 0 0 0 0 0 0 0 0 0 0 0 0 0 0 0 0 0 0 0 0 0 0 0 0 0 0 0 0 0 0 0 0 0 0 0
0 0 0 0 0 0 0 0 0 0 0 0 0 0 0 0 0 0 0 0 0 0 0 0 0 0 0 0 0 0 0 0 0 0 0 0 0 0 0 0 0 0 0
0 0 0 0 0 0 0 0 0 0 0 0 0 0 0 0 0 0 0 0 0 0 0 0 0 0 0 0 0 0 0 0 0 0 0 0 0 0 0 0 0 0 0
0 0 0 0 0 0 0 0 0 0 0 0 0 0 0 0 0 0 0 0 0 0 0 0 0 0 0 0 0 0 0 0 0 0 0 0 0 0 0 0 0 0 0
0 0 0 0 0 0 0 0 0 0 0 0 0 0 0 0 0 0 0 0 0 0 0 0 0 0 0 0 0 0 0 0 0 0 0 0 0 0 0 0 0 0 0
0 0 0 0 0 0 0 0 0 0 0 0 0 0 0 0 0 0 0 0 0 0 0 0 0 0 0 0 0 0 0 0 0 0 0 0 0 0 0 0 0 0 0
0 0 0 0 0 0 0 0 0 0 0 0 0 0 0 0 0 0 0 0 0 0 0 0 0 0 0 0 0 0 0 0 0 0 0 0 0 0 0 0 0 0 0
0 0 0 0 0 0 0 0 0 0 0 0 0 0 0 0 0 0 0 0 0 0 0 0 0 0 0 0 0 0 0 0 0 0 0 0 0 0 0 0 0 0 0
0 0 0 0 0 0 0 0 0 0 0 0 0 0 0 0 0 0 0 0 0 0 0 0 0 0 0 0 0 0 0 0 0 0 0 0 0 0 0 0 0 0 0
0 0 0 0 0 0 0 0 0 0 0 0 0 0 0 0 0 0 0 0 0 0 0 0 0 0 0 0 0 0 0 0 0 0 0 0 0 0 0 0 0 0 0
0 0 0 0 0 0 0 0 0 0 0 0 0 0 0 0 0 0 0 0 0 0 0 0 0 0 0 0 0 0 0 0 0 0 0 0 0 0 0 0 0 0 0
0 0 0 0 0 0 0 0 0 0 0 0 0 0 0 0 0 0 0 0 0 0 0 0 0 0 0 0 0 0 0 0 0 0 0 0 0 0 0 0 0 0 0
0 0 0 0 0 0 0 0 0 0 0 0 0 0 0 0 0 0 0 0 0 0 0 0 0 0 0 0 0 0 0 0 0 0 0 0 0 0 0 0 0 0 0
Wind_Speed
3 3 2 3 3 3 4 3 4 4 4 4 4 4 4 4 3 2 1 2 2 3 3 3 3 3 3 3 3 3 4 4 4 5 5 5 6 6 6 7 6 7 8
3 3 3 3 3 3 4 4 4 4 4 4 4 4 4 4 4 3 3 3 3 3 3 3 4 4 4 5 4 4 5 5 5 6 6 6 7 7 7 7 7 7 8
3 4 3 3 3 3 4 4 4 4 4 4 5 5 4 4 4 4 3 3 3 3 3 3 4 4 5 5 5 6 6 6 6 6 7 7 7 8 8 7 7 8 8
4 3 3 3 3 3 3 4 4 4 4 4 4 3 4 4 5 4 4 3 3 2 2 2 4 4 5 6 6 6 6 7 7 7 7 7 8 8 9 8 8 9 9
4 4 3 3 3 3 4 4 4 4 4 4 3 3 4 4 4 4 5 4 3 3 2 2 2 4 5 6 6 7 7 7 7 7 7 8 9 9 9 9 9 9 9
4 4 3 4 4 3 3 4 5 4 4 3 3 3 4 4 4 5 5 4 3 3 3 3 2 2 4 6 7 7 8 8 8 8 8 8 9 10 10 9 9 9 10
4 4 3 4 4 4 4 5 4 5 4 2 2 2 3 4 4 3 4 4 3 3 3 3 2 2 2 4 6 8 9 9 9 9 9 9 9 10 10 10 9 10 10
4 3 4 3 3 3 5 5 4 3 3 3 3 2 3 3 3 3 3 3 3 3 3 3 3 3 3 3 3 6 9 9 9 9 10 10 10 10 10 11 10 11 11
3 3 4 4 4 3 4 4 5 5 4 4 3 3 3 3 2 3 4 3 3 3 3 3 3 3 3 3 3 4 6 8 9 9 10 10 10 11 11 11 11 11 11
3 3 4 4 4 3 4 4 4 4 5 5 3 3 3 2 2 2 3 3 3 3 3 3 3 3 3 3 3 4 5 7 8 9 10 10 11 12 12 12 12 12 12
3 3 3 3 3 3 4 4 4 4 4 5 4 3 3 2 3 3 3 3 2 3 3 3 2 2 3 3 3 4 5 7 8 9 9 10 11 12 12 12 13 13 12
2 2 3 3 3 3 4 4 4 5 4 4 4 3 3 3 3 4 4 3 2 2 2 2 3 2 2 3 3 4 5 7 7 9 9 10 11 12 12 12 13 13 12
2 2 2 3 3 3 3 4 4 4 5 5 4 3 3 3 2 2 3 3 2 1 2 3 2 2 2 3 3 4 5 6 7 9 9 10 11 12 12 11 12 12 12
3 3 3 3 3 3 3 4 4 4 4 5 4 4 3 2 2 3 2 2 2 2 2 2 1 2 2 3 3 5 4 5 7 8 9 9 9 10 10 10 11 12 12
3 3 2 2 2 2 2 3 3 3 3 3 3 3 3 2 2 2 2 3 3 3 3 2 2 2 3 3 3 4 5 5 7 8 8 8 9 9 9 10 11 11 12
3 3 2 2 2 2 2 2 2 3 3 3 2 3 2 2 2 2 2 2 3 3 3 1 2 2 3 3 4 4 4 6 6 7 7 8 9 9 9 10 10 11 11
3 2 2 2 2 2 2 2 2 3 3 2 2 3 2 2 2 1 1 1 1 2 3 2 2 2 4 4 4 4 4 4 3 5 7 8 9 9 9 10 10 11 12
2 2 2 1 1 2 2 2 2 2 2 2 2 2 2 1 1 1 1 1 1 1 2 2 2 2 4 4 5 5 4 4 4 4 7 8 9 9 9 10 10 11 11
1 1 0 1 1 1 1 1 1 2 1 2 2 2 2 2 1 0 0 0 0 0 1 1 2 2 3 3 4 4 4 4 4 4 6 7 7 8 9 10 10 10 11
0 0 0 1 1 1 1 1 1 1 1 1 1 2 2 2 2 1 0 1 1 0 1 1 1 2 2 3 3 3 3 3 4 3 4 5 6 7 7 8 9 10 11
0 0 0 0 1 0 1 2 1 1 1 1 1 1 1 1 1 1 1 1 0 0 1 1 1 2 2 2 3 3 4 4 4 3 4 4 4 4 5 6 7 10 11
1 1 0 0 1 0 2 3 2 1 1 2 2 2 2 2 3 3 2 2 1 0 1 1 2 2 2 3 3 3 4 4 4 3 5 5 4 4 4 4 8 11 11
1 1 1 1 0 1 2 2 3 1 1 2 2 2 1 2 2 2 3 3 2 2 1 1 2 2 3 3 4 4 4 4 4 4 5 5 4 5 4 5 8 10 11
1 1 1 1 0 1 2 3 4 2 2 2 2 2 2 2 2 2 2 2 2 2 2 1 1 2 3 3 4 4 4 4 4 3 3 4 5 5 6 5 6 9 10
1 1 1 1 1 1 2 3 3 2 2 2 2 2 2 2 2 2 2 1 1 2 3 3 3 3 4 4 4 3 3 3 3 3 3 3 4 6 5 4 5 8 9
0 1 1 1 1 1 2 3 2 1 2 2 2 2 2 2 2 1 1 1 1 1 1 2 2 3 3 3 5 4 3 3 3 3 3 4 4 5 5 4 5 6 6
Wind_Direction
207 196 200 208 213 200 193 201 206 202 206 205 209 215 218 219 222 225 184 182 237 238 240 240 238 244 250 252 263 274 292 286 282 286 288 290 291 292 293 293 296 301 303
224 212 207 212 212 209 198 201 208 209 212 212 213 217 223 219 222 227 222 186 198 231 237 244 249 256 261 261 262 273 277 283 284 283 281 286 287 286 288 290 293 297 299
228 228 214 218 216 210 203 199 199 209 214 213 215 217 223 224 225 227 231 219 204 200 229 249 257 263 267 264 268 272 276 279 283 286 280 284 287 287 288 290 291 294 297
229 235 217 217 215 211 203 202 198 205 209 213 214 216 224 224 228 229 235 228 222 220 209 235 257 269 276 273 275 277 280 285 285 283 288 285 285 285 285 286 288 291 293
229 235 231 218 212 213 202 201 204 207 208 212 217 221 227 228 229 225 233 229 220 225 232 208 244 268 280 282 284 286 287 286 291 289 290 291 286 283 283 284 285 289 292
231 233 234 220 209 217 211 204 207 208 210 205 214 230 236 237 233 228 232 225 217 220 231 238 238 243 270 287 289 293 292 293 291 296 295 295 293 284 281 281 284 287 290
231 233 235 223 213 214 217 213 210 199 193 188 210 233 242 236 238 233 230 226 220 219 226 236 251 261 264 273 283 294 296 294 295 297 301 295 293 294 285 283 285 288 292
234 234 230 222 219 216 214 208 199 200 184 191 211 219 230 220 210 236 230 228 229 223 229 238 250 258 273 275 292 291 299 296 296 296 298 299 297 295 299 291 287 289 292
233 237 238 224 219 215 216 211 199 200 193 198 215 221 230 235 236 216 222 223 222 233 235 239 249 255 264 275 282 294 305 302 301 299 300 300 301 299 301 302 291 290 292
232 228 240 233 225 222 220 216 211 212 200 197 206 235 249 265 245 238 208 220 234 243 240 242 250 255 267 271 282 299 310 307 304 301 301 303 304 303 300 305 298 294 294
234 229 236 237 231 227 223 215 212 208 208 210 203 208 220 239 238 243 244 227 231 238 246 245 249 260 274 278 281 305 313 310 307 305 305 305 306 306 304 303 304 297 296
252 239 235 231 232 230 225 217 215 210 211 214 212 212 213 218 223 227 243 247 243 243 251 249 251 265 283 288 293 315 308 311 312 311 310 307 306 307 305 306 306 304 300
265 255 253 235 229 230 230 217 211 210 210 211 212 218 229 239 253 244 240 248 256 265 248 247 253 273 293 294 299 317 299 311 313 313 311 309 309 310 307 310 309 308 308
267 261 245 244 243 232 229 221 211 207 207 212 215 213 221 234 245 244 240 232 246 246 241 258 280 277 298 301 319 305 297 310 313 313 313 316 318 319 317 316 314 313 314
269 259 242 240 241 240 237 226 212 204 201 208 213 213 220 223 234 252 240 235 233 242 249 258 269 285 307 306 320 305 303 316 315 318 318 323 324 321 318 317 318 318 315
266 248 243 241 242 243 235 235 208 199 198 199 204 209 214 223 227 235 221 247 251 247 258 276 288 299 306 304 313 305 306 313 309 319 320 328 326 322 323 323 324 322 320
251 244 245 247 240 240 237 224 203 190 194 196 200 200 202 216 227 239 223 233 246 240 246 282 299 303 311 312 313 312 308 302 310 323 324 324 325 324 325 323 323 324 325
264 250 243 246 237 221 225 218 195 184 184 193 202 190 189 199 226 242 229 221 236 260 250 268 296 312 311 312 311 308 304 302 305 323 324 320 323 326 328 326 324 327 327
287 269 213 236 265 235 230 212 175 179 194 205 208 190 194 186 181 211 282 234 211 312 278 266 296 312 308 314 313 307 306 308 313 320 319 317 320 326 328 330 329 331 332
311 355 341 285 265 232 203 166 150 159 166 212 206 191 196 188 175 179 171 124 101 128 242 260 290 317 314 319 311 310 312 322 321 325 323 322 324 325 328 332 333 334 333
3 49 76 303 293 276 143 132 138 142 134 161 170 154 152 138 128 140 153 152 168 206 259 272 285 299 315 329 318 318 312 318 326 338 330 326 325 323 324 327 331 337 335
25 48 93 48 6 1 104 117 130 140 143 146 143 120 115 114 102 96 90 78 58 218 263 290 286 288 303 314 314 310 312 318 319 343 326 313 317 315 321 325 335 333 333
26 45 46 40 19 91 101 115 127 126 133 133 129 117 108 99 89 93 88 75 59 40 358 296 290 306 310 314 311 308 311 311 305 324 316 303 316 312 318 322 329 330 331
19 38 45 42 66 89 97 101 110 101 112 108 110 116 120 112 93 91 87 66 43 27 11 345 325 326 326 324 310 302 307 307 303 320 320 299 312 311 314 312 326 331 330
20 32 37 46 72 80 98 105 103 96 103 99 101 106 118 112 112 106 96 89 54 30 33 35 22 3 347 336 322 312 313 313 314 325 336 308 313 317 311 308 324 328 326
74 51 50 37 35 33 80 108 103 110 116 109 102 113 114 118 120 105 110 122 86 28 20 26 23 17 4 5 352 336 319 313 317 319 346 327 319 331 318 316 326 328 324